Location: Caltech
(34.1382°N, 118.1253°W)
Time: 05:18:09
(UTC-07:00)

Uribyol 2 - Visible Passes

Search period start: 05 September 2015 00:00
Search period end: 15 September 2015 00:00
Orbit: 782 x 797 km, 98.7° (Epoch: 04 September)

Date Brightness Start Highest point End Pass type
(mag) Time Alt. Az. Time Alt. Az. Time Alt. Az.
05 Sep ? 03:43:40 10° N 03:46:27 32° N 03:46:27 32° N visible
06 Sep ? 03:14:05 10° NNE 03:16:27 27° NNE 03:16:27 27° NNE visible
06 Sep ? 04:55:58 10° NW 04:57:10 12° NW 04:57:10 12° NW visible
07 Sep ? 02:44:56 10° NNE 02:46:26 18° NE 02:46:26 18° NE visible
07 Sep ? 04:24:46 10° NNW 04:27:09 20° NW 04:27:09 20° NW visible
08 Sep ? 03:54:34 10° N 03:57:08 27° NNW 03:57:08 27° NNW visible
09 Sep ? 03:24:51 10° NNE 03:27:07 27° NNE 03:27:07 27° NNE visible
10 Sep ? 02:55:32 10° NNE 02:57:06 19° NE 02:57:06 19° NE visible
10 Sep ? 04:35:58 10° NNW 04:37:49 16° NW 04:37:49 16° NW visible
11 Sep ? 02:26:47 10° NE 02:27:05 11° NE 02:27:05 11° NE visible
11 Sep ? 04:05:33 10° N 04:07:48 23° NNW 04:07:48 23° NNW visible
12 Sep ? 03:35:40 10° N 03:37:47 25° N 03:37:47 25° N visible
13 Sep ? 03:06:12 10° NNE 03:07:45 20° NNE 03:07:45 20° NNE visible
13 Sep ? 04:47:20 10° NNW 04:48:29 13° NW 04:48:29 13° NW visible
14 Sep ? 02:37:13 10° NE 02:37:45 12° NE 02:37:45 12° NE visible
14 Sep ? 04:16:35 10° N 04:18:28 19° NNW 04:18:28 19° NNW visible
